EW0771 Weather Reports


Display with metric or nautical units.
time (UTC)temp
F
wind
direction
speed
MPH
gust
MPH
rain 1hr
in
rain 24hr
in
rain mn
in
humidity
%
barometer
mb
20180620020359 70 9 0.0 0.0 0.00 0.00 0.00 78 1009.3
20180620014855 70 9 0.0 0.0 0.00 0.00 0.00 77 1009.3
20180620013352 71 8 0.0 0.0 0.00 0.00 0.00 75 1009.3
20180620011848 72 8 0.0 0.0 0.00 0.00 0.00 74 1008.9
20180620010345 73 8 0.0 0.0 0.00 0.00 0.00 71 1008.5
20180620004843 74 8 0.0 0.0 0.00 0.00 0.00 67 1008.5
20180620003338 75 8 0.0 0.0 0.00 0.00 0.00 64 1008.4
20180620001839 77 8 0.0 0.0 0.00 0.00 0.00 62 1008.3
20180620000337 78 8 0.0 0.0 0.00 0.00 0.00 61 1008.0
20180619234836 79 8 0.0 1.0 0.00 0.00 0.00 56 1007.9
20180619233339 80 233 0.0 0.0 0.00 0.00 0.00 55 1007.9
20180619231835 81 233 0.0 0.0 0.00 0.00 0.00 53 1007.7
20180619230337 82 262 0.0 6.0 0.00 0.00 0.00 49 1007.5
20180619224834 82 207 1.0 4.0 0.00 0.00 0.00 55 1007.3
20180619223333 83 267 0.0 5.0 0.00 0.00 0.00 52 1007.3
20180619221832 83 18 1.0 6.0 0.00 0.00 0.00 50 1007.1
20180619220335 83 86 0.0 6.0 0.00 0.00 0.00 52 1006.9
20180619214834 83 349 0.0 5.0 0.00 0.00 0.00 53 1006.9
20180619213331 83 347 0.0 2.0 0.00 0.00 0.00 55 1007.0
20180619211831 83 240 0.0 5.0 0.00 0.00 0.00 50 1007.0
20180619210328 83 236 0.0 4.0 0.00 0.00 0.00 56 1007.2
20180619204827 83 200 0.0 2.0 0.00 0.00 0.00 62 1007.6
20180619203328 83 33 0.0 2.0 0.00 0.00 0.00 65 1007.4
20180619201827 83 353 0.0 4.0 0.00 0.00 0.00 62 1007.2
20180619200324 84 309 0.0 5.0 0.00 0.00 0.00 68 1007.4
20180619194826 84 30 1.0 3.0 0.00 0.00 0.00 66 1007.3
20180619193327 84 345 0.0 3.0 0.00 0.00 0.00 68 1007.5
20180619191822 83 64 0.0 2.0 0.00 0.00 0.00 72 1007.5
20180619190320 84 253 0.0 1.0 0.00 0.00 0.00 74 1007.5
20180619184820 84 68 0.0 4.0 0.00 0.00 0.00 73 1007.3
20180619183319 85 79 0.0 2.0 0.00 0.00 0.00 72 1007.5
20180619181815 84 33 0.0 1.0 0.00 0.00 0.00 75 1007.6
20180619180314 83 158 0.0 1.0 0.00 0.00 0.00 76 1007.8
20180619174815 83 290 0.0 1.0 0.00 0.00 0.00 76 1007.9
20180619173313 83 191 0.0 1.0 0.00 0.00 0.00 74 1008.0
20180619171813 83 161 0.0 4.0 0.00 0.00 0.00 73 1008.0
20180619170312 83 71 1.0 5.0 0.00 0.00 0.00 72 1008.1
20180619164812 84 110 0.0 1.0 0.00 0.00 0.00 74 1008.0
20180619163314 82 231 0.0 3.0 0.00 0.00 0.00 76 1008.3
20180619161810 83 179 0.0 6.0 0.00 0.00 0.00 76 1008.3
20180619160310 84 335 0.0 5.0 0.00 0.00 0.00 74 1008.2
20180619154806 83 335 0.0 4.0 0.00 0.00 0.00 75 1008.1
20180619153301 82 359 0.0 7.0 0.00 0.00 0.00 78 1008.2
20180619151803 82 188 0.0 5.0 0.00 0.00 0.00 77 1008.1
20180619150257 82 12 1.0 5.0 0.00 0.00 0.00 78 1008.0
20180619144759 81 307 0.0 3.0 0.00 0.00 0.00 79 1008.0
20180619143259 81 117 0.0 1.0 0.00 0.00 0.00 79 1008.0
20180619141756 82 25 1.0 5.0 0.00 0.00 0.00 79 1008.1
20180619140255 82 140 0.0 4.0 0.00 0.00 0.00 80 1007.9
20180619134757 81 342 0.0 1.0 0.00 0.00 0.00 81 1007.8
20180619133251 80 110 0.0 4.0 0.00 0.00 0.00 82 1007.9
20180619131750 80 23 0.0 2.0 0.00 0.00 0.00 83 1007.9
20180619130245 79 61 0.0 1.0 0.00 0.00 0.00 83 1007.7
20180619124746 78 41 0.0 1.0 0.00 0.00 0.00 84 1007.8
20180619123247 78 64 0.0 0.0 0.00 0.00 0.00 84 1007.9
20180619121740 78 75 0.0 1.0 0.00 0.00 0.00 84 1007.5
20180619120245 77 138 0.0 0.0 0.00 0.00 0.00 83 1007.6
20180619114738 77 60 0.0 1.0 0.00 0.00 0.00 83 1007.5
20180619113236 77 39 0.0 1.0 0.00 0.00 0.00 84 1007.4
20180619111739 76 61 0.0 2.0 0.00 0.00 0.00 84 1007.6
20180619110236 76 88 0.0 1.0 0.00 0.00 0.00 84 1007.5
20180619104738 76 257 0.0 4.0 0.00 0.00 0.00 83 1007.5
20180619103235 77 89 0.0 3.0 0.00 0.00 0.00 83 1007.6
20180619101734 76 357 0.0 3.0 0.00 0.00 0.00 84 1007.5
20180619100233 75 8 0.0 2.0 0.00 0.00 0.00 84 1007.2
20180619094732 76 77 0.0 0.0 0.00 0.00 0.00 83 1006.9
20180619093234 76 77 0.0 0.0 0.00 0.00 0.00 83 1006.8
20180619091735 76 76 0.0 0.0 0.00 0.00 0.00 83 1006.8
20180619090232 76 77 0.0 0.0 0.00 0.00 0.00 83 1006.8
20180619084730 76 77 0.0 0.0 0.00 0.00 0.00 83 1006.9
20180619083233 76 77 0.0 0.0 0.00 0.00 0.00 83 1006.8
20180619081730 76 77 0.0 0.0 0.00 0.00 0.00 84 1006.7
20180619080232 76 77 0.0 0.0 0.00 0.00 0.00 84 1006.8
20180619074731 77 77 0.0 0.0 0.00 0.00 0.00 84 1006.7
20180619073230 77 27 0.0 0.0 0.00 0.00 0.00 84 1006.5
20180619071726 77 44 0.0 1.0 0.00 0.00 0.00 84 1006.5
20180619070226 77 43 0.0 1.0 0.00 0.00 0.00 84 1006.7
20180619064723 77 43 0.0 0.0 0.00 0.00 0.00 84 1006.8
20180619063223 77 15 0.0 0.0 0.00 0.00 0.00 84 1006.9
20180619061720 77 15 0.0 0.0 0.00 0.00 0.00 84 1007.1
20180619060216 76 15 0.0 0.0 0.00 0.00 0.00 85 1007.3
20180619054714 76 14 0.0 0.0 0.00 0.00 0.00 85 1007.6
20180619053212 76 15 0.0 0.0 0.00 0.00 0.00 85 1007.8
20180619051714 76 14 0.0 0.0 0.00 0.00 0.00 85 1007.9
20180619050209 76 15 0.0 0.0 0.00 0.00 0.00 85 1008.2
20180619044713 76 15 0.0 0.0 0.00 0.00 0.00 86 1008.3
20180619043205 76 14 0.0 0.0 0.00 0.00 0.00 86 1008.3
20180619041703 76 15 0.0 0.0 0.00 0.00 0.00 85 1008.2
20180619040201 77 15 0.0 0.0 0.00 0.00 0.00 85 1008.3
20180619034704 77 15 0.0 0.0 0.00 0.00 0.00 85 1008.5
20180619033200 77 15 0.0 0.0 0.00 0.00 0.00 85 1008.6
20180619031659 77 15 0.0 0.0 0.00 0.00 0.00 85 1008.8
20180619030200 78 14 0.0 0.0 0.00 0.00 0.00 85 1009.1
20180619024701 78 15 0.0 0.0 0.00 0.00 0.00 85 1009.2
20180619023156 78 228 0.0 0.0 0.00 0.00 0.00 84 1009.2
20180619021655 78 228 0.0 0.0 0.00 0.00 0.00 84 1009.3